Regional Weather Roundup
Issued by NWS

Home | Current Version | Previous Version | Graphics & Text | Print | Product List | Glossary On
Versions: 1 2 3 4 5 6 7 8 9 10 11 12 13 14 15 16 17 18 19 20 21 22 23 24 25 26 27 28 29 30 31 32 33 34 35 36 37 38 39 40 41 42 43 44 45 46 47 48 49 50
000
ASUS45 KTFX 290410
RWRMT
MONTANA REGIONAL WEATHER ROUNDUP
NATIONAL WEATHER SERVICE GREAT FALLS MT
1000 PM MDT TUE JUL 28 2015

NOTE: "FAIR" INDICATES FEW OR NO CLOUDS BELOW 12000 FEET WITH NO
SIGNIFICANT WEATHER AND/OR OBSTRUCTIONS TO VISIBILITY.

MTZ001>007-043-290500-
WEST OF THE DIVIDE

CITY           SKY/WX    TMP DP  RH WIND       PRES   REMARKS
KALISPELL      MOCLDY    64  43  46 SW6       30.20R
MISSOULA       CLEAR     61  43  51 VRB3      30.24R
BUTTE          CLEAR     56  35  45 NW5       30.32R
MULLAN PASS    CLEAR     53  34  48 VRB5      30.34S
DEER LODGE       N/A     52  39  62 W5        30.32R
EUREKA           N/A     66  45  45 S3        30.18R
HAMILTON         N/A     59  45  58 S5        30.26R
LIBBY            N/A     61  45  55 CALM      30.20R
$$

MTZ008-052>055-290500-
SOUTHWEST MONTANA

CITY           SKY/WX    TMP DP  RH WIND       PRES   REMARKS
BOZEMAN        MOCLDY    57  40  52 S8        30.26R
DILLON         CLEAR     54  37  52 SW7       30.30R
W YELLOWSTONE  CLEAR     43  39  87 CALM      30.39R
TWIN BRIDGES     N/A     57  43  59 NE3       30.25R
$$

MTZ009-010-012-014-046-048-049-054-290500-
EAST SLOPES AND CENTRAL MONTANA

CITY           SKY/WX    TMP DP  RH WIND       PRES   REMARKS
CUT BANK       CLEAR     60  39  45 W15       30.15R
GREAT FALLS    PTCLDY    56  39  53 W8        30.16R
MALMSTROM AFB  MOCLDY    66  37  33 W10       30.16R
HELENA         CLEAR     65  34  31 SW7       30.22R
$$

MTZ011-013-016-021-045-047-050-051-290500-
NORTH CENTRAL MONTANA

CITY           SKY/WX    TMP DP  RH WIND       PRES   REMARKS
HAVRE          MOCLDY    62  50  64 W3        30.05R
LEWISTOWN      PTCLDY    55  42  61 SW9       30.18R
CHINOOK          N/A     61  50  67 SW5       30.04R
FORT BENTON      N/A     63  39  42 W7        30.12R
$$

MTZ017>020-022>027-061-062-290500-
NORTHEAST MONTANA

CITY           SKY/WX    TMP DP  RH WIND       PRES   REMARKS
GLASGOW        MOCLDY    59  49  69 W7        29.99R
JORDAN           N/A     59  47  64 W6        30.06R
SIDNEY         MOCLDY    55  50  82 CALM      29.96R
WOLF POINT     CLOUDY    63  50  62 W9        29.97R
PLENTYWOOD       N/A     57  52  82 W17G23    29.88R
POPLAR           N/A     63  52  67 SW8       29.96R
$$

MTZ028>42-056>058-290500-
SOUTHCENTRAL AND SOUTHEAST MONTANA

CITY           SKY/WX    TMP DP  RH WIND       PRES   REMARKS
BAKER          CLEAR     59  40  49 W10       30.07R
BILLINGS       PTCLDY    66  36  32 W16       30.19R
LIVINGSTON     CLEAR     60  37  42 W17G25    30.25R
MILES CITY     PTCLDY    61  41  47 W9        30.08R
FORSYTH          N/A     64  39  39 SW5       30.11R
LAUREL           N/A     66  33  29 W8        30.17R
ROUNDUP          N/A     63  36  36 W3        30.06R
$$

REGIONAL REPORTS...DAKOTAS

CITY           SKY/WX    TMP DP  RH WIND       PRES   REMARKS
WILLISTON      CLOUDY    59  51  75 W17       29.89R
MINOT          LGT RAIN  59  51  75 W37G59    29.66R
DICKINSON      PTCLDY    56  48  74 N7        29.96R
BEACH          FAIR      59  45  58 W14       30.02S
CROSBY         RAIN      55  55 100 W18G31    29.80R
BISMARCK       CLOUDY    64  47  53 W31G47    29.90R
GRAND FORKS    MOCLDY    67  50  54 W31G44    29.56F
FARGO          CLEAR     68  47  46 SW21G36   29.74F
BUFFALO SD       N/A     57  37  47 W14       30.04R
RAPID CITY     CLEAR     59  45  59 NW13      30.16R
$$

REGIONAL REPORTS...WYOMING/IDAHO/WASHINGTON

CITY           SKY/WX    TMP DP  RH WIND       PRES   REMARKS
GILLETTE       CLEAR     54  35  48 W9        30.23R
SHERIDAN       CLEAR     55  38  52 W10       30.22R
BUFFALO WY     CLEAR     55  36  48 W8        30.28R
CODY           CLEAR     61  30  31 CALM      30.29R
YELLOWSTONE LA   N/A     37  32  82 NW5       30.46R
IDAHO FALLS    PTCLDY    52  43  71 CALM      30.30R
SALMON         CLEAR     57  43  58 S5        30.26R
BOISE          CLEAR     72  38  29 W5        30.18R
SPOKANE        PTCLDY    73  36  25 SW9       30.17S
$$

REGIONAL REPORTS...ALBERTA

CITY           SKY/WX    TMP DP  RH WIND       PRES   REMARKS
EDMONTON       PTCLDY    61  48  63 W3        29.97R
CALGARY        PTCLDY    63  45  51 VRB2      30.09R
LETHBRIDGE     PTCLDY    64  43  45 W15G26    30.08R
MEDICINE HAT   CLOUDY    68  43  40 W6        30.02R
CARDSTON         N/A     61  39  44 W9          N/A
MILK RIVER       N/A     55  43  62 NW8         N/A
$$

REGIONAL REPORTS...SASKATCHEWAN

CITY           SKY/WX    TMP DP  RH WIND       PRES   REMARKS
SWIFT CURRENT  CLEAR     57  48  72 W8        29.95R
REGINA         CLOUDY    57  55  94 NW21      29.77R
SASKATOON      MOCLDY    61  55  82 W10       29.82R
CYPRESS HILLS    N/A     57  39  51 NW7         N/A
VAL MARIE        N/A     55  48  76 W10         N/A
ROCKGLEN         N/A     57  50  77 W13G20      N/A
ASSINIBOIA       N/A     57  50  77 W6          N/A
$$


USA.gov is the U.S. government's official web portal to all federal, state and local government web resources and services.